Year,Month,Day,Hour,Minute,Value (Times are PST for temperature in C)
2014,02,06,00,00,-2.70
2014,02,06,00,01,-2.70
2014,02,06,00,02,-2.70
2014,02,06,00,03,-2.70
2014,02,06,00,04,-2.70
2014,02,06,00,05,-2.70
2014,02,06,00,06,-2.70
2014,02,06,00,07,-2.70
2014,02,06,00,08,-2.70
2014,02,06,00,09,-2.70
2014,02,06,00,10,-2.70
2014,02,06,00,11,-2.70
2014,02,06,00,12,-2.70
2014,02,06,00,13,-2.70
2014,02,06,00,14,-2.70
2014,02,06,00,15,-2.80
2014,02,06,00,16,-2.80
2014,02,06,00,17,-2.80
2014,02,06,00,18,-2.80
2014,02,06,00,19,-2.80
2014,02,06,00,20,-2.80
2014,02,06,00,21,-2.80
2014,02,06,00,22,-2.80
2014,02,06,00,23,-2.80
2014,02,06,00,24,-2.80
2014,02,06,00,25,-2.90
2014,02,06,00,26,-2.90
2014,02,06,00,27,-2.90
2014,02,06,00,28,-2.90
2014,02,06,00,29,-2.90
2014,02,06,00,30,-2.90
2014,02,06,00,31,-2.90
2014,02,06,00,32,-2.90
2014,02,06,00,33,-2.90
2014,02,06,00,34,-2.90
2014,02,06,00,35,-2.90
2014,02,06,00,36,-2.90
2014,02,06,00,37,-2.90
2014,02,06,00,38,-2.90
2014,02,06,00,39,-2.90
2014,02,06,00,40,-2.90
2014,02,06,00,41,-2.90
2014,02,06,00,42,-2.90
2014,02,06,00,43,-2.90
2014,02,06,00,44,-2.90
2014,02,06,00,45,-2.90
2014,02,06,00,46,-2.90
2014,02,06,00,47,-2.90
2014,02,06,00,48,-3.00
2014,02,06,00,49,-3.00
2014,02,06,00,50,-3.00
2014,02,06,00,51,-3.00
2014,02,06,00,52,-3.00
2014,02,06,00,53,-3.10
2014,02,06,00,54,-3.10
2014,02,06,00,55,-3.10
2014,02,06,00,56,-3.10
2014,02,06,00,57,-3.10
2014,02,06,00,58,-3.10
2014,02,06,00,59,-3.10
2014,02,06,01,00,-3.10
2014,02,06,01,01,-3.10
2014,02,06,01,02,-3.10
2014,02,06,01,03,-3.10
2014,02,06,01,04,-3.10
2014,02,06,01,05,-3.10
2014,02,06,01,06,-3.10
2014,02,06,01,07,-3.10
2014,02,06,01,08,-3.10
2014,02,06,01,09,-3.10
2014,02,06,01,10,-3.10
2014,02,06,01,11,-3.10
2014,02,06,01,12,-3.10
2014,02,06,01,13,-3.10
2014,02,06,01,14,-3.10
2014,02,06,01,15,-3.10
2014,02,06,01,16,-3.10
2014,02,06,01,17,-3.10
2014,02,06,01,18,-3.10
2014,02,06,01,19,-3.10
2014,02,06,01,20,-3.10
2014,02,06,01,21,-3.10
2014,02,06,01,22,-3.10
2014,02,06,01,23,-3.20
2014,02,06,01,24,-3.20
2014,02,06,01,25,-3.20
2014,02,06,01,26,-3.20
2014,02,06,01,27,-3.20
2014,02,06,01,28,-3.20
2014,02,06,01,29,-3.20
2014,02,06,01,30,-3.20
2014,02,06,01,31,-3.20
2014,02,06,01,32,-3.20
2014,02,06,01,33,-3.20
2014,02,06,01,34,-3.20
2014,02,06,01,35,-3.20
2014,02,06,01,36,-3.20
2014,02,06,01,37,-3.20
2014,02,06,01,38,-3.20
2014,02,06,01,39,-3.20
2014,02,06,01,40,-3.20
2014,02,06,01,41,-3.20
2014,02,06,01,42,-3.20
2014,02,06,01,43,-3.20
2014,02,06,01,44,-3.20
2014,02,06,01,45,-3.20
2014,02,06,01,46,-3.20
2014,02,06,01,47,-3.20
2014,02,06,01,48,-3.20
2014,02,06,01,49,-3.30
2014,02,06,01,50,-3.30
2014,02,06,01,51,-3.30
2014,02,06,01,52,-3.30
2014,02,06,01,53,-3.30
2014,02,06,01,54,-3.30
2014,02,06,01,55,-3.30
2014,02,06,01,56,-3.30
2014,02,06,01,57,-3.30
2014,02,06,01,58,-3.30
2014,02,06,01,59,-3.30
2014,02,06,02,00,-3.30
2014,02,06,02,01,-3.30
2014,02,06,02,02,-3.30
2014,02,06,02,03,-3.30
2014,02,06,02,04,-3.30
2014,02,06,02,05,-3.30
2014,02,06,02,06,-3.30
2014,02,06,02,07,-3.30
2014,02,06,02,08,-3.30
2014,02,06,02,09,-3.30
2014,02,06,02,10,-3.30
2014,02,06,02,11,-3.30
2014,02,06,02,12,-3.30
2014,02,06,02,13,-3.20
2014,02,06,02,14,-3.20
2014,02,06,02,15,-3.20
2014,02,06,02,16,-3.20
2014,02,06,02,17,-3.20
2014,02,06,02,18,-3.20
2014,02,06,02,19,-3.20
2014,02,06,02,20,-3.20
2014,02,06,02,21,-3.20
2014,02,06,02,22,-3.20
2014,02,06,02,23,-3.20
2014,02,06,02,24,-3.20
2014,02,06,02,25,-3.30
2014,02,06,02,26,-3.30
2014,02,06,02,27,-3.30
2014,02,06,02,28,-3.30
2014,02,06,02,29,-3.30
2014,02,06,02,30,-3.30
2014,02,06,02,31,-3.30
2014,02,06,02,32,-3.30
2014,02,06,02,33,-3.30
2014,02,06,02,34,-3.30
2014,02,06,02,35,-3.30
2014,02,06,02,36,-3.30
2014,02,06,02,37,-3.30
2014,02,06,02,38,-3.30
2014,02,06,02,39,-3.30
2014,02,06,02,40,-3.30
2014,02,06,02,41,-3.30
2014,02,06,02,42,-3.30
2014,02,06,02,43,-3.30
2014,02,06,02,44,-3.30
2014,02,06,02,45,-3.30
2014,02,06,02,46,-3.30
2014,02,06,02,47,-3.30
2014,02,06,02,48,-3.30
2014,02,06,02,49,-3.30
2014,02,06,02,50,-3.30
2014,02,06,02,51,-3.30
2014,02,06,02,52,-3.30
2014,02,06,02,53,-3.30
2014,02,06,02,54,-3.30
2014,02,06,02,55,-3.30
2014,02,06,02,56,-3.30
2014,02,06,02,57,-3.30
2014,02,06,02,58,-3.30
2014,02,06,02,59,-3.30
2014,02,06,03,00,-3.30
2014,02,06,03,01,-3.30
2014,02,06,03,02,-3.30
2014,02,06,03,03,-3.30
2014,02,06,03,06,-3.30
2014,02,06,03,07,-3.30
2014,02,06,03,08,-3.30
2014,02,06,03,09,-3.30
2014,02,06,03,10,-3.30
2014,02,06,03,11,-3.30
2014,02,06,03,12,-3.30
2014,02,06,03,13,-3.30
2014,02,06,03,14,-3.30
2014,02,06,03,15,-3.40
2014,02,06,03,16,-3.40
2014,02,06,03,17,-3.40
2014,02,06,03,18,-3.40
2014,02,06,03,19,-3.40
2014,02,06,03,20,-3.30
2014,02,06,03,21,-3.40
2014,02,06,03,22,-3.30
2014,02,06,03,23,-3.30
2014,02,06,03,24,-3.30
2014,02,06,03,25,-3.30
2014,02,06,03,26,-3.30
2014,02,06,03,27,-3.30
2014,02,06,03,28,-3.30
2014,02,06,03,29,-3.30
2014,02,06,03,30,-3.30
2014,02,06,03,31,-3.30
2014,02,06,03,32,-3.30
2014,02,06,03,33,-3.30
2014,02,06,03,34,-3.30
2014,02,06,03,35,-3.30
2014,02,06,03,36,-3.30
2014,02,06,03,37,-3.30
2014,02,06,03,38,-3.30
2014,02,06,03,39,-3.30
2014,02,06,03,40,-3.30
2014,02,06,03,41,-3.30
2014,02,06,03,42,-3.30
2014,02,06,03,43,-3.30
2014,02,06,03,44,-3.30
2014,02,06,03,45,-3.30
2014,02,06,03,46,-3.30
2014,02,06,03,47,-3.30
2014,02,06,03,48,-3.30
2014,02,06,03,49,-3.30
2014,02,06,03,50,-3.30
2014,02,06,03,51,-3.30
2014,02,06,03,52,-3.30
2014,02,06,03,53,-3.30
2014,02,06,03,54,-3.30
2014,02,06,03,55,-3.30
2014,02,06,03,56,-3.30
2014,02,06,03,57,-3.30
2014,02,06,03,58,-3.30
2014,02,06,03,59,-3.30
2014,02,06,04,00,-3.30
2014,02,06,04,01,-3.40
2014,02,06,04,02,-3.30
2014,02,06,04,03,-3.30
2014,02,06,04,04,-3.30
2014,02,06,04,05,-3.40
2014,02,06,04,06,-3.30
2014,02,06,04,07,-3.40
2014,02,06,04,08,-3.30
2014,02,06,04,09,-3.30
2014,02,06,04,10,-3.40
2014,02,06,04,11,-3.40
2014,02,06,04,12,-3.40
2014,02,06,04,13,-3.40
2014,02,06,04,14,-3.40
2014,02,06,04,15,-3.30
2014,02,06,04,16,-3.30
2014,02,06,04,17,-3.40
2014,02,06,04,18,-3.40
2014,02,06,04,19,-3.40
2014,02,06,04,20,-3.40
2014,02,06,04,21,-3.40
2014,02,06,04,22,-3.40
2014,02,06,04,23,-3.40
2014,02,06,04,24,-3.40
2014,02,06,04,25,-3.40
2014,02,06,04,26,-3.40
2014,02,06,04,27,-3.40
2014,02,06,04,28,-3.50
2014,02,06,04,29,-3.50
2014,02,06,04,30,-3.50
2014,02,06,04,31,-3.50
2014,02,06,04,32,-3.50
2014,02,06,04,33,-3.50
2014,02,06,04,34,-3.50
2014,02,06,04,35,-3.50
2014,02,06,04,36,-3.50
2014,02,06,04,37,-3.50
2014,02,06,04,38,-3.50
2014,02,06,04,39,-3.50
2014,02,06,04,40,-3.50
2014,02,06,04,41,-3.50
2014,02,06,04,42,-3.50
2014,02,06,04,43,-3.40
2014,02,06,04,44,-3.40
2014,02,06,04,45,-3.40
2014,02,06,04,46,-3.40
2014,02,06,04,47,-3.40
2014,02,06,04,48,-3.40
2014,02,06,04,49,-3.40
2014,02,06,04,50,-3.40
2014,02,06,04,51,-3.40
2014,02,06,04,52,-3.40
2014,02,06,04,53,-3.40
2014,02,06,04,54,-3.40
2014,02,06,04,55,-3.40
2014,02,06,04,56,-3.40
2014,02,06,04,57,-3.40
2014,02,06,04,58,-3.40
2014,02,06,04,59,-3.40
2014,02,06,05,00,-3.40
2014,02,06,05,01,-3.40
2014,02,06,05,02,-3.40
2014,02,06,05,03,-3.40
2014,02,06,05,04,-3.40
2014,02,06,05,05,-3.40
2014,02,06,05,06,-3.40
2014,02,06,05,07,-3.50
2014,02,06,05,08,-3.50
2014,02,06,05,09,-3.50
2014,02,06,05,10,-3.50
2014,02,06,05,11,-3.50
2014,02,06,05,12,-3.50
2014,02,06,05,13,-3.50
2014,02,06,05,14,-3.50
2014,02,06,05,15,-3.50
2014,02,06,05,16,-3.40
2014,02,06,05,17,-3.40
2014,02,06,05,18,-3.40
2014,02,06,05,19,-3.40
2014,02,06,05,20,-3.40
2014,02,06,05,21,-3.40
2014,02,06,05,22,-3.40
2014,02,06,05,23,-3.40
2014,02,06,05,24,-3.40
2014,02,06,05,25,-3.40
2014,02,06,05,26,-3.40
2014,02,06,05,27,-3.50
2014,02,06,05,28,-3.50
2014,02,06,05,29,-3.50
2014,02,06,05,30,-3.50
2014,02,06,05,31,-3.50
2014,02,06,05,32,-3.50
2014,02,06,05,33,-3.50
2014,02,06,05,34,-3.50
2014,02,06,05,35,-3.50
2014,02,06,05,36,-3.50
2014,02,06,05,37,-3.50
2014,02,06,05,38,-3.50
2014,02,06,05,39,-3.50
2014,02,06,05,40,-3.50
2014,02,06,05,41,-3.50
2014,02,06,05,42,-3.50
2014,02,06,05,43,-3.60
2014,02,06,05,44,-3.60
2014,02,06,05,45,-3.60
2014,02,06,05,46,-3.60
2014,02,06,05,47,-3.60
2014,02,06,05,48,-3.60
2014,02,06,05,49,-3.60
2014,02,06,05,50,-3.60
2014,02,06,05,51,-3.60
2014,02,06,05,52,-3.60
2014,02,06,05,53,-3.60
2014,02,06,05,54,-3.60
2014,02,06,05,55,-3.50
2014,02,06,05,56,-3.50
2014,02,06,05,57,-3.50
2014,02,06,05,58,-3.40
2014,02,06,05,59,-3.40
2014,02,06,06,00,-3.40
2014,02,06,06,01,-3.40
2014,02,06,06,02,-3.40
2014,02,06,06,03,-3.40
2014,02,06,06,04,-3.40
2014,02,06,06,05,-3.40
2014,02,06,06,06,-3.50
2014,02,06,06,07,-3.50
2014,02,06,06,08,-3.50
2014,02,06,06,09,-3.50
2014,02,06,06,10,-3.50
2014,02,06,06,11,-3.50
2014,02,06,06,12,-3.50
2014,02,06,06,13,-3.50
2014,02,06,06,14,-3.50
2014,02,06,06,15,-3.50
2014,02,06,06,16,-3.50
2014,02,06,06,17,-3.50
2014,02,06,06,18,-3.50
2014,02,06,06,19,-3.50
2014,02,06,06,20,-3.50
2014,02,06,06,21,-3.50
2014,02,06,06,22,-3.50
2014,02,06,06,23,-3.50
2014,02,06,06,24,-3.50
2014,02,06,06,25,-3.50
2014,02,06,06,26,-3.50
2014,02,06,06,27,-3.50
2014,02,06,06,28,-3.50
2014,02,06,06,29,-3.50
2014,02,06,06,30,-3.50
2014,02,06,06,31,-3.50
2014,02,06,06,32,-3.50
2014,02,06,06,33,-3.50
2014,02,06,06,34,-3.50
2014,02,06,06,35,-3.50
2014,02,06,06,36,-3.50
2014,02,06,06,37,-3.40
2014,02,06,06,38,-3.40
2014,02,06,06,39,-3.40
2014,02,06,06,40,-3.40
2014,02,06,06,41,-3.40
2014,02,06,06,42,-3.40
2014,02,06,06,43,-3.40
2014,02,06,06,44,-3.40
2014,02,06,06,45,-3.40
2014,02,06,06,46,-3.40
2014,02,06,06,47,-3.50
2014,02,06,06,48,-3.50
2014,02,06,06,49,-3.50
2014,02,06,06,50,-3.50
2014,02,06,06,51,-3.50
2014,02,06,06,52,-3.50
2014,02,06,06,53,-3.50
2014,02,06,06,54,-3.50
2014,02,06,06,55,-3.50
2014,02,06,06,56,-3.50
2014,02,06,06,57,-3.50
2014,02,06,06,58,-3.50
2014,02,06,06,59,-3.40
2014,02,06,07,00,-3.40
2014,02,06,07,01,-3.40
2014,02,06,07,02,-3.40
2014,02,06,07,03,-3.40
2014,02,06,07,04,-3.40
2014,02,06,07,05,-3.40
2014,02,06,07,06,-3.40
2014,02,06,07,07,-3.40
2014,02,06,07,08,-3.40
2014,02,06,07,09,-3.40
2014,02,06,07,10,-3.40
2014,02,06,07,11,-3.40
2014,02,06,07,12,-3.40
2014,02,06,07,13,-3.40
2014,02,06,07,14,-3.40
2014,02,06,07,15,-3.40
2014,02,06,07,16,-3.40
2014,02,06,07,17,-3.40
2014,02,06,07,18,-3.40
2014,02,06,07,19,-3.40
2014,02,06,07,20,-3.40
2014,02,06,07,21,-3.40
2014,02,06,07,22,-3.50
2014,02,06,07,23,-3.50
2014,02,06,07,24,-3.50
2014,02,06,07,25,-3.50
2014,02,06,07,26,-3.50
2014,02,06,07,27,-3.50
2014,02,06,07,28,-3.50
2014,02,06,07,29,-3.50
2014,02,06,07,30,-3.50
2014,02,06,07,31,-3.50
2014,02,06,07,32,-3.50
2014,02,06,07,33,-3.60
2014,02,06,07,34,-3.60
2014,02,06,07,35,-3.60
2014,02,06,07,36,-3.60
2014,02,06,07,37,-3.50
2014,02,06,07,38,-3.50
2014,02,06,07,39,-3.50
2014,02,06,07,40,-3.50
2014,02,06,07,41,-3.50
2014,02,06,07,42,-3.50
2014,02,06,07,43,-3.50
2014,02,06,07,44,-3.50
2014,02,06,07,45,-3.50
2014,02,06,07,46,-3.50
2014,02,06,07,47,-3.50
2014,02,06,07,48,-3.50
2014,02,06,07,49,-3.50
2014,02,06,07,50,-3.50
2014,02,06,07,51,-3.50
2014,02,06,07,52,-3.40
2014,02,06,07,53,-3.40
2014,02,06,07,54,-3.40
2014,02,06,07,55,-3.40
2014,02,06,07,56,-3.40
2014,02,06,07,57,-3.40
2014,02,06,07,58,-3.40
2014,02,06,07,59,-3.30
2014,02,06,08,00,-3.30
2014,02,06,08,01,-3.30
2014,02,06,08,02,-3.30
2014,02,06,08,03,-3.20
2014,02,06,08,04,-3.20
2014,02,06,08,05,-3.20
2014,02,06,08,06,-3.20
2014,02,06,08,07,-3.10
2014,02,06,08,08,-3.10
2014,02,06,08,09,-3.10
2014,02,06,08,10,-3.10
2014,02,06,08,11,-3.00
2014,02,06,08,12,-3.00
2014,02,06,08,13,-2.90
2014,02,06,08,14,-2.90
2014,02,06,08,15,-2.90
2014,02,06,08,16,-2.90
2014,02,06,08,17,-2.80
2014,02,06,08,18,-2.80
2014,02,06,08,19,-2.80
2014,02,06,08,20,-2.80
2014,02,06,08,21,-2.80
2014,02,06,08,22,-2.70
2014,02,06,08,23,-2.70
2014,02,06,08,24,-2.70
2014,02,06,08,25,-2.70
2014,02,06,08,26,-2.70
2014,02,06,08,27,-2.70
2014,02,06,08,28,-2.60
2014,02,06,08,29,-2.60
2014,02,06,08,30,-2.60
2014,02,06,08,31,-2.60
2014,02,06,08,32,-2.50
2014,02,06,08,33,-2.50
2014,02,06,08,34,-2.50
2014,02,06,08,35,-2.40
2014,02,06,08,36,-2.40
2014,02,06,08,37,-2.40
2014,02,06,08,38,-2.40
2014,02,06,08,39,-2.30
2014,02,06,08,40,-2.30
2014,02,06,08,41,-2.30
2014,02,06,08,42,-2.30
2014,02,06,08,43,-2.30
2014,02,06,08,44,-2.30
2014,02,06,08,45,-2.30
2014,02,06,08,46,-2.20
2014,02,06,08,47,-2.20
2014,02,06,08,48,-2.20
2014,02,06,08,49,-2.20
2014,02,06,08,50,-2.20
2014,02,06,08,51,-2.20
2014,02,06,08,52,-2.10
2014,02,06,08,53,-2.10
2014,02,06,08,54,-2.10
2014,02,06,08,55,-2.00
2014,02,06,08,56,-2.00
2014,02,06,08,57,-1.90
2014,02,06,08,58,-1.90
2014,02,06,08,59,-1.90
2014,02,06,09,00,-1.90
2014,02,06,09,01,-1.80
2014,02,06,09,02,-1.80
2014,02,06,09,03,-1.80
2014,02,06,09,04,-1.70
2014,02,06,09,05,-1.70
2014,02,06,09,06,-1.60
2014,02,06,09,07,-1.60
2014,02,06,09,08,-1.60
2014,02,06,09,09,-1.50
2014,02,06,09,10,-1.40
2014,02,06,09,11,-1.40
2014,02,06,09,12,-1.40
2014,02,06,09,13,-1.40
2014,02,06,09,14,-1.40
2014,02,06,09,15,-1.40
2014,02,06,09,16,-1.40
2014,02,06,09,17,-1.40
2014,02,06,09,18,-1.40
2014,02,06,09,19,-1.30
2014,02,06,09,20,-1.30
2014,02,06,09,21,-1.30
2014,02,06,09,22,-1.30
2014,02,06,09,23,-1.30
2014,02,06,09,24,-1.30
2014,02,06,09,25,-1.30
2014,02,06,09,26,-1.30
2014,02,06,09,27,-1.30
2014,02,06,09,28,-1.30
2014,02,06,09,29,-1.20
2014,02,06,09,30,-1.20
2014,02,06,09,31,-1.20
2014,02,06,09,32,-1.20
2014,02,06,09,33,-1.20
2014,02,06,09,34,-1.20
2014,02,06,09,35,-1.20
2014,02,06,09,36,-1.20
2014,02,06,09,37,-1.20
2014,02,06,09,38,-1.20
2014,02,06,09,39,-1.20
2014,02,06,09,40,-1.20
2014,02,06,09,41,-1.20
2014,02,06,09,42,-1.20
2014,02,06,09,43,-1.20
2014,02,06,09,44,-1.20
2014,02,06,09,45,-1.20
2014,02,06,09,46,-1.20
2014,02,06,09,47,-1.20
2014,02,06,09,48,-1.20
2014,02,06,09,49,-1.20
2014,02,06,09,50,-1.20
2014,02,06,09,51,-1.20
2014,02,06,09,52,-1.20
2014,02,06,09,53,-1.20
2014,02,06,09,54,-1.20
2014,02,06,09,55,-1.10
2014,02,06,09,56,-1.10
2014,02,06,09,57,-1.10
2014,02,06,09,58,-1.10
2014,02,06,09,59,-1.10
2014,02,06,10,00,-1.20
2014,02,06,10,01,-1.20
2014,02,06,10,02,-1.30
2014,02,06,10,03,-1.30
2014,02,06,10,04,-1.30
2014,02,06,10,05,-1.30
2014,02,06,10,06,-1.30
2014,02,06,10,07,-1.30
2014,02,06,10,08,-1.30
2014,02,06,10,09,-1.30
2014,02,06,10,10,-1.30
2014,02,06,10,11,-1.30
2014,02,06,10,12,-1.30
2014,02,06,10,13,-1.30
2014,02,06,10,14,-1.30
2014,02,06,10,15,-1.30
2014,02,06,10,16,-1.30
2014,02,06,10,17,-1.30
2014,02,06,10,18,-1.30
2014,02,06,10,19,-1.30
2014,02,06,10,20,-1.30
2014,02,06,10,21,-1.20
2014,02,06,10,22,-1.20
2014,02,06,10,23,-1.20
2014,02,06,10,24,-1.10
2014,02,06,10,25,-1.10
2014,02,06,10,26,-1.10
2014,02,06,10,27,-1.00
2014,02,06,10,28,-1.00
2014,02,06,10,29,-1.00
2014,02,06,10,30,-1.00
2014,02,06,10,31,-1.00
2014,02,06,10,32,-1.00
2014,02,06,10,33,-1.00
2014,02,06,10,34,-0.90
2014,02,06,10,35,-0.90
2014,02,06,10,36,-0.90
2014,02,06,10,37,-0.90
2014,02,06,10,38,-0.90
2014,02,06,10,39,-0.90
2014,02,06,10,40,-0.80
2014,02,06,10,41,-0.80
2014,02,06,10,42,-0.90
2014,02,06,10,43,-0.90
2014,02,06,10,44,-0.90
2014,02,06,10,45,-0.90
2014,02,06,10,46,-0.90
2014,02,06,10,47,-0.90
2014,02,06,10,48,-0.90
2014,02,06,10,49,-0.90
2014,02,06,10,50,-0.90
2014,02,06,10,51,-0.90
2014,02,06,10,52,-0.90
2014,02,06,10,53,-0.90
2014,02,06,10,54,-0.90
2014,02,06,10,55,-0.80
2014,02,06,10,56,-0.80
2014,02,06,10,57,-0.80
2014,02,06,10,58,-0.80
2014,02,06,10,59,-0.90
2014,02,06,11,00,-0.90
2014,02,06,11,01,-1.00
2014,02,06,11,02,-0.90
2014,02,06,11,03,-0.90
2014,02,06,11,04,-0.90
2014,02,06,11,05,-0.90
2014,02,06,11,06,-0.80
2014,02,06,11,07,-0.80
2014,02,06,11,08,-0.80
2014,02,06,11,09,-0.80
2014,02,06,11,10,-0.80
2014,02,06,11,11,-0.80
2014,02,06,11,12,-0.80
2014,02,06,11,13,-0.80
2014,02,06,11,14,-0.80
2014,02,06,11,15,-0.80
2014,02,06,11,16,-0.80
2014,02,06,11,17,-0.80
2014,02,06,11,18,-0.80
2014,02,06,11,19,-0.80
2014,02,06,11,20,-0.80
2014,02,06,11,21,-0.70
2014,02,06,11,22,-0.70
2014,02,06,11,23,-0.70
2014,02,06,11,24,-0.70
2014,02,06,11,25,-0.70
2014,02,06,11,26,-0.60
2014,02,06,11,27,-0.60
2014,02,06,11,28,-0.60
2014,02,06,11,29,-0.60
2014,02,06,11,30,-0.60
2014,02,06,11,31,-0.60
2014,02,06,11,32,-0.60
2014,02,06,11,33,-0.60
2014,02,06,11,34,-0.60
2014,02,06,11,35,-0.60
2014,02,06,11,36,-0.60
2014,02,06,11,37,-0.50
2014,02,06,11,38,-0.50
2014,02,06,11,39,-0.50
2014,02,06,11,40,-0.50
2014,02,06,11,41,-0.60
2014,02,06,11,42,-0.60
2014,02,06,11,43,-0.60
2014,02,06,11,44,-0.60
2014,02,06,11,45,-0.60
2014,02,06,11,46,-0.60
2014,02,06,11,47,-0.60
2014,02,06,11,48,-0.50
2014,02,06,11,49,-0.50
2014,02,06,11,50,-0.50
2014,02,06,11,51,-0.40
2014,02,06,11,52,-0.40
2014,02,06,11,53,-0.40
2014,02,06,11,54,-0.40
2014,02,06,11,55,-0.40
2014,02,06,11,56,-0.40
2014,02,06,11,57,-0.30
2014,02,06,11,58,-0.30
2014,02,06,11,59,-0.30
2014,02,06,12,00,-0.30
2014,02,06,12,01,-0.40
2014,02,06,12,02,-0.50
2014,02,06,12,03,-0.50
2014,02,06,12,04,-0.60
2014,02,06,12,05,-0.60
2014,02,06,12,06,-0.60
2014,02,06,12,07,-0.60
2014,02,06,12,08,-0.50
2014,02,06,12,09,-0.50
2014,02,06,12,10,-0.40
2014,02,06,12,11,-0.40
2014,02,06,12,12,-0.40
2014,02,06,12,13,-0.30
2014,02,06,12,14,-0.40
2014,02,06,12,15,-0.40
2014,02,06,12,16,-0.40
2014,02,06,12,17,-0.30
2014,02,06,12,18,-0.30
2014,02,06,12,19,-0.30
2014,02,06,12,20,-0.30
2014,02,06,12,21,-0.20
2014,02,06,12,22,-0.20
2014,02,06,12,23,-0.20
2014,02,06,12,24,-0.20
2014,02,06,12,25,-0.20
2014,02,06,12,26,-0.20
2014,02,06,12,27,-0.20
2014,02,06,12,28,-0.10
2014,02,06,12,29,-0.10
2014,02,06,12,30,-0.10
2014,02,06,12,31,-0.10
2014,02,06,12,32,0.00
2014,02,06,12,33,0.00
2014,02,06,12,34,0.00
2014,02,06,12,35,0.10
2014,02,06,12,36,0.10
2014,02,06,12,37,0.10
2014,02,06,12,38,0.10
2014,02,06,12,39,0.10
2014,02,06,12,40,0.10
2014,02,06,12,41,0.10
2014,02,06,12,42,0.10
2014,02,06,12,43,0.00
2014,02,06,12,44,0.00
2014,02,06,12,45,0.00
2014,02,06,12,46,-0.10
2014,02,06,12,47,-0.10
2014,02,06,12,48,-0.10
2014,02,06,12,49,-0.10
2014,02,06,12,50,-0.10
2014,02,06,12,51,-0.10
2014,02,06,12,52,-0.10
2014,02,06,12,53,-0.10
2014,02,06,12,54,-0.10
2014,02,06,12,55,-0.10
2014,02,06,12,56,-0.10
2014,02,06,12,57,-0.10
2014,02,06,12,58,-0.10
2014,02,06,12,59,-0.10
2014,02,06,13,00,-0.10
2014,02,06,13,01,-0.10
2014,02,06,13,02,0.00
2014,02,06,13,03,0.00
2014,02,06,13,04,0.00
2014,02,06,13,05,0.00
2014,02,06,13,06,0.00
2014,02,06,13,07,0.00
2014,02,06,13,08,0.00
2014,02,06,13,09,-0.10
2014,02,06,13,10,-0.10
2014,02,06,13,11,-0.10
2014,02,06,13,12,-0.10
2014,02,06,13,13,-0.20
2014,02,06,13,14,-0.20
2014,02,06,13,15,-0.20
2014,02,06,13,16,-0.30
2014,02,06,13,17,-0.20
2014,02,06,13,18,-0.20
2014,02,06,13,19,-0.20
2014,02,06,13,20,-0.30
2014,02,06,13,21,-0.20
2014,02,06,13,22,-0.20
2014,02,06,13,23,-0.20
2014,02,06,13,24,-0.20
2014,02,06,13,25,-0.20
2014,02,06,13,26,-0.20
2014,02,06,13,27,-0.20
2014,02,06,13,28,-0.20
2014,02,06,13,29,-0.20
2014,02,06,13,30,-0.20
2014,02,06,13,31,-0.20
2014,02,06,13,32,-0.20
2014,02,06,13,33,-0.20
2014,02,06,13,34,-0.20
2014,02,06,13,35,-0.20
2014,02,06,13,36,-0.20
2014,02,06,13,37,-0.20
2014,02,06,13,38,-0.20
2014,02,06,13,39,-0.20
2014,02,06,13,40,-0.30
2014,02,06,13,41,-0.30
2014,02,06,13,42,-0.30
2014,02,06,13,43,-0.30
2014,02,06,13,44,-0.30
2014,02,06,13,45,-0.40
2014,02,06,13,46,-0.40
2014,02,06,13,47,-0.40
2014,02,06,13,48,-0.30
2014,02,06,13,49,-0.30
2014,02,06,13,50,-0.30
2014,02,06,13,51,-0.30
2014,02,06,13,52,-0.20
2014,02,06,13,53,-0.20
2014,02,06,13,54,-0.20
2014,02,06,13,55,-0.20
2014,02,06,13,56,-0.20
2014,02,06,13,57,-0.20
2014,02,06,13,58,-0.20
2014,02,06,13,59,-0.20
2014,02,06,14,00,-0.20
2014,02,06,14,01,-0.20
2014,02,06,14,02,-0.20
2014,02,06,14,03,-0.20
2014,02,06,14,04,-0.20
2014,02,06,14,05,-0.20
2014,02,06,14,06,-0.20
2014,02,06,14,07,-0.20
2014,02,06,14,08,-0.20
2014,02,06,14,09,-0.20
2014,02,06,14,10,-0.20
2014,02,06,14,11,-0.20
2014,02,06,14,12,-0.20
2014,02,06,14,13,-0.20
2014,02,06,14,14,-0.20
2014,02,06,14,15,-0.20
2014,02,06,14,16,-0.30
2014,02,06,14,17,-0.30
2014,02,06,14,18,-0.30
2014,02,06,14,19,-0.30
2014,02,06,14,20,-0.30
2014,02,06,14,21,-0.40
2014,02,06,14,22,-0.40
2014,02,06,14,23,-0.40
2014,02,06,14,24,-0.50
2014,02,06,14,25,-0.50
2014,02,06,14,26,-0.60
2014,02,06,14,27,-0.60
2014,02,06,14,28,-0.60
2014,02,06,14,29,-0.70
2014,02,06,14,30,-0.70
2014,02,06,14,31,-0.70
2014,02,06,14,32,-0.70
2014,02,06,14,33,-0.70
2014,02,06,14,34,-0.70
2014,02,06,14,35,-0.70
2014,02,06,14,36,-0.70
2014,02,06,14,37,-0.70
2014,02,06,14,38,-0.70
2014,02,06,14,39,-0.70
2014,02,06,14,40,-0.70
2014,02,06,14,41,-0.70
2014,02,06,14,42,-0.70
2014,02,06,14,43,-0.80
2014,02,06,14,44,-0.80
2014,02,06,14,45,-0.80
2014,02,06,14,46,-0.80
2014,02,06,14,47,-0.80
2014,02,06,14,48,-0.80
2014,02,06,14,49,-0.80
2014,02,06,14,50,-0.80
2014,02,06,14,51,-0.90
2014,02,06,14,52,-0.90
2014,02,06,14,53,-0.90
2014,02,06,14,54,-0.90
2014,02,06,14,55,-0.90
2014,02,06,14,56,-0.90
2014,02,06,14,57,-0.90
2014,02,06,14,58,-0.90
2014,02,06,14,59,-0.90
2014,02,06,15,00,-0.90
2014,02,06,15,01,-0.90
2014,02,06,15,02,-0.90
2014,02,06,15,03,-0.90
2014,02,06,15,04,-0.90
2014,02,06,15,05,-0.90
2014,02,06,15,06,-0.90
2014,02,06,15,07,-0.80
2014,02,06,15,08,-0.80
2014,02,06,15,09,-0.80
2014,02,06,15,10,-0.80
2014,02,06,15,11,-0.80
2014,02,06,15,12,-0.80
2014,02,06,15,13,-0.80
2014,02,06,15,14,-0.80
2014,02,06,15,15,-0.80
2014,02,06,15,16,-0.80
2014,02,06,15,17,-0.70
2014,02,06,15,18,-0.70
2014,02,06,15,19,-0.70
2014,02,06,15,20,-0.70
2014,02,06,15,21,-0.70
2014,02,06,15,22,-0.70
2014,02,06,15,23,-0.80
2014,02,06,15,24,-0.80
2014,02,06,15,25,-0.80
2014,02,06,15,26,-0.80
2014,02,06,15,27,-0.80
2014,02,06,15,28,-0.80
2014,02,06,15,29,-0.80
2014,02,06,15,30,-0.80
2014,02,06,15,31,-0.80
2014,02,06,15,32,-0.70
2014,02,06,15,33,-0.70
2014,02,06,15,34,-0.70
2014,02,06,15,35,-0.70
2014,02,06,15,36,-0.70
2014,02,06,15,37,-0.70
2014,02,06,15,38,-0.70
2014,02,06,15,39,-0.70
2014,02,06,15,40,-0.70
2014,02,06,15,41,-0.70
2014,02,06,15,42,-0.70
2014,02,06,15,43,-0.70
2014,02,06,15,44,-0.70
2014,02,06,15,45,-0.70
2014,02,06,15,46,-0.70
2014,02,06,15,47,-0.70
2014,02,06,15,48,-0.70
2014,02,06,15,49,-0.70
2014,02,06,15,50,-0.70
2014,02,06,15,51,-0.70
2014,02,06,15,52,-0.70
2014,02,06,15,53,-0.70
2014,02,06,15,54,-0.70
2014,02,06,15,55,-0.70
2014,02,06,15,56,-0.80
2014,02,06,15,57,-0.80
2014,02,06,15,58,-0.80
2014,02,06,15,59,-0.80
2014,02,06,16,00,-0.80
2014,02,06,16,01,-0.80
2014,02,06,16,02,-0.80
2014,02,06,16,03,-0.80
2014,02,06,16,04,-0.80
2014,02,06,16,05,-0.80
2014,02,06,16,06,-0.80
2014,02,06,16,07,-0.80
2014,02,06,16,08,-0.80
2014,02,06,16,09,-0.70
2014,02,06,16,10,-0.70
2014,02,06,16,11,-0.70
2014,02,06,16,12,-0.70
2014,02,06,16,13,-0.70
2014,02,06,16,14,-0.70
2014,02,06,16,15,-0.70
2014,02,06,16,16,-0.70
2014,02,06,16,17,-0.80
2014,02,06,16,18,-0.80
2014,02,06,16,19,-0.80
2014,02,06,16,20,-0.80
2014,02,06,16,21,-0.80
2014,02,06,16,22,-0.80
2014,02,06,16,23,-0.80
2014,02,06,16,24,-0.80
2014,02,06,16,25,-0.90
2014,02,06,16,26,-0.90
2014,02,06,16,27,-0.90
2014,02,06,16,28,-0.90
2014,02,06,16,29,-1.00
2014,02,06,16,30,-0.90
2014,02,06,16,31,-1.00
2014,02,06,16,32,-1.00
2014,02,06,16,33,-1.00
2014,02,06,16,34,-1.00
2014,02,06,16,35,-1.10
2014,02,06,16,36,-1.10
2014,02,06,16,37,-1.10
2014,02,06,16,38,-1.10
2014,02,06,16,39,-1.10
2014,02,06,16,40,-1.10
2014,02,06,16,41,-1.10
2014,02,06,16,42,-1.10
2014,02,06,16,43,-1.10
2014,02,06,16,44,-1.10
2014,02,06,16,45,-1.00
2014,02,06,16,46,-1.00
2014,02,06,16,47,-1.00
2014,02,06,16,48,-1.00
2014,02,06,16,49,-1.00
2014,02,06,16,50,-1.00
2014,02,06,16,51,-1.00
2014,02,06,16,52,-1.00
2014,02,06,16,53,-1.00
2014,02,06,16,54,-1.00
2014,02,06,16,55,-1.00
2014,02,06,16,56,-1.00
2014,02,06,16,57,-1.10
2014,02,06,16,58,-1.10
2014,02,06,16,59,-1.10
2014,02,06,17,00,-1.10
2014,02,06,17,01,-1.10
2014,02,06,17,02,-1.10
2014,02,06,17,03,-1.20
2014,02,06,17,04,-1.20
2014,02,06,17,05,-1.20
2014,02,06,17,06,-1.20
2014,02,06,17,07,-1.30
2014,02,06,17,08,-1.30
2014,02,06,17,09,-1.30
2014,02,06,17,10,-1.30
2014,02,06,17,11,-1.40
2014,02,06,17,12,-1.40
2014,02,06,17,13,-1.40
2014,02,06,17,14,-1.40
2014,02,06,17,15,-1.50
2014,02,06,17,16,-1.50
2014,02,06,17,17,-1.50
2014,02,06,17,18,-1.60
2014,02,06,17,19,-1.60
2014,02,06,17,20,-1.60
2014,02,06,17,21,-1.70
2014,02,06,17,22,-1.70